Location: Alpine Heights
(32.8181°N, 116.7809°W)
Time: 22:52:25
(UTC+00:00)

METEOR-M - Pass Details

Date: 14 April 2021
Orbit: 816 x 819 km, 98.5° (Epoch: 15 May)

Event Time Altitude Azimuth Distance (km) Brightness Sun altitude
Rises 12:03:35 0° 14° (NNE) 3,349 7.9 -15.8°
Reaches altitude 10° 12:05:57 10° 16° (NNE) 2,413 7.1 -15.3°
Maximum altitude 12:11:17 77° 102° (ESE) 841 4.3 -14.3°
Drops below altitude 10° 12:16:37 10° 189° (S) 2,401 6.3 -13.3°
Sets 12:18:57 0° 190° (S) 3,330 7.0 -12.8°
